Timeline UpdatesTrip UpdatesNews PostsPvt PostsTravel TipsAdmin PostsConv PostsFollowed PostsChat RequestsBlog PostsPNR Posts

Disclaimer
Search
 
 
Sun Apr 20, 2014 17:16:22 ISTHomeTrainsΣChainsAtlasPNRForumGalleryNewsFAQTripsMembersLoginFeedback
No Recent News for this Train
Other Trains in the News **new
Latest...
.
Sat Feb 22, 2014 (07:36PM)
⇐ Return Journey: Train# 17057

17058/Devagiri Express

Jul 03 2013 (10:43AM)
Change Departure Station:
Change Arrival Station:
Post a Train Travel TipPost a Train Travel Tip **new
Post a Comment/Question/Picture/VideoPost a Comment/Question/Picture/Video
Pantry/Catering
✕ NO Pantry Car
✓ Catering Avbl
RSA - Rake Sharing
17057/17058/12710/12709 has RSA
Rake/Coach Composition
LOCO-SLR-GEN-GEN-S1-S2-S3-S4-S5-S6-S7-S8-S9-S10-S11-S12-BE1-B1-B2-A1-HA1-GEN-SLR.
Loco
SC-MMR: MLY WDM-3A twins. MMR-CSTM: KYN WCAM-3
News    PNR    Forum    Time-Table    Availability    Fare Chart    Map    Arr/Dep History    Trips    Gallery    ΣChains    X/O    Timeline    
Travel Time: 18h 15m    27 halts    Distance: 879 km    Avg Speed: 48 km/hr
Type: Mail/Express
Zone: SCR/South Central
Departs @ 12:55 (Avg 4m late)
Platform# 6
SMTWTFS
Secunderabad Junction/SC 
Arrives @ 07:10 +1 night (Avg 28m late)
Platform# 10
SMTWTFS
Mumbai CST/CSTM 

27 halts. 140 intermediate Stations between Secunderabad Junction and Mumbai CST

Hide intermediate Stations  Show Old Time-Table

#CodeStation NameX/OArrivesAvgDepartsAvgHaltPFDay#KmSpeedElevZoneAddress
1SC»Secunderabad Junction (10)»  -12:55+4610.031539mSCRSecunderabad 500003, Andhra Pradesh
1.1LGDHLalaguda Gate (2)  13:00-13:00-  12.4 31543mSCRSecunderabad, Andhra Pradesh
1.2MJFMalkajgiri (3)  13:02-13:02-  13.5 31535mSCRSecunderabad, Andhra Pradesh
1.3DYEDayanand Nagar (2)  13:03-13:03-  14.3 31537mSCRSecunderabad, Andhra Pradesh
1.4SFXSafilguda (2)O  13:04-13:04-  14.9 31544mSCRSecunderabad, Andhra Pradesh
1.5RKORamakistapuram Gate (2)  13:08-13:08-  16.6 31561mSCRSecunderabad, Andhra Pradesh
1.6AMQAmmuguda Halt (2)O  13:10-13:10-  17.7 31569mSCRSecunderabad, Andhra Pradesh
1.7CVBCavalry Barracks (3)  13:12-13:12-  19.1 31575mSCRSecunderabad, Andhra Pradesh
1.8ALWAlwal (2)  13:15-13:15-  110.3 31580mSCRSecunderabad, Andhra Pradesh
1.9BOZBolarum Bazar (2)X  13:18-13:18-  112.0 31584mSCRSecunderabad, Andhra Pradesh
2BMOBolarum (3)X  13:21+1513:22+161m2113.668597mSCRSecunderabad, Andhra Pradesh
2.1GOPLGundlapochampalli  13:27-13:27-  118.9 68601mSCRTelangana Region, Andhra Pradesh
2.2GDPLGundla Pochampally (1)  13:27-13:27-  119.0 68601mSCRRangareddy, Andhra Pradesh
2.3GWVGowdavalli (1)X  13:31-13:31-  124.1 68601mSCRRangareddy, Andhra Pradesh
2.4MEDMedchal (3)  13:34-13:34-  127.5 68602mSCRRangareddy Dist., Andhra Pradesh
2.5DBVDabilpur (1)  13:38-13:38-  131.5 68611mSCRRangareddy Dist., Andhra Pradesh
2.6KUCHKuchavaram Halt (1)  13:44-13:44-  138.1 68595mSCRRangareddy, Andhra Pradesh
2.7MOBManoharabad (2)  13:46-13:46-  140.8 68593mSCRMedak, Andhra Pradesh
2.8PAPMPalata Potaram (1)  13:57-13:57-  153.3 68522mSCRNational Highway 7, Andhra Pradesh
2.9BMPLBrahmanapalli (1)  13:59-13:59-  155.0 68528mSCRNational Highway 7, Andhra Pradesh
2.10MEMasaipet (2)  14:01-14:01-  157.8 68520mSCRMedak, Andhra Pradesh
2.11SHANSrinivasa Nagar  14:04-14:04-  161.0 68522mSCRRamanthapur, Andhra Pradesh
2.12WDRWadiaram (2)  14:08-14:08-  165.7 68547mSCRTelangana Region, Andhra Pradesh
3MZLMirzapalli (1)  14:14+1614:15+171m1172.272530mSCRMedak, Andhra Pradesh
3.1SNPHShankapur Halt  14:20-14:20-  177.9 72547mSCRNizamabad, Andhra Pradesh
4AKEAkanapet  14:24+1814:25+181m1183.062566mSCR, Andhra Pradesh
4.1BKUBhiknur  14:31-14:31-  189.2 62575mSCRNizamabad, Andhra Pradesh
4.2THPRTippapur (1)  14:35-14:35-  193.2 62549mSCRNational Highway 7, Andhra Pradesh
4.3TMDTalmadla  14:40-14:40-  198.7 62559mSCRTelangana Region, Andhra Pradesh
5KMCKamareddi (3)  14:50+2014:51+211m11108.853528mSCRKamareddi, Andhra Pradesh
5.1UPWUppalavaiX  15:04-15:04-  1120.0 53529mSCRUppalwai Main Rd, Andhra Pradesh
5.2SCPSirnapalli  15:16-15:16-  1130.4 53456mSCRSirnapalli, Andhra Pradesh
5.3IDLIndalvai (1)  15:25-15:25-  1138.3 53439mSCRIndalvai, Andhra Pradesh
5.4DHPDichpalli  15:35-15:35-  1147.8 53424mSCRDichpalli, Andhra Pradesh
6NZBNizamabad (3)  15:50+1215:52+162m11160.645384mSCRNizamabad, Andhra Pradesh
6.1JKMJankampet Junction (1)  16:00-16:00-  1166.9 45391mSCRJankampet Junction nizamabad dist., Andhra Pradesh
6.2NVTNavipet (2)X  16:13-16:13-  1176.3 45374mSCRNizamabad, Andhra Pradesh
6.3FKBFakrabad (1)X  16:22-16:22-  1183.3 45348mSCRBasara, Andhra Pradesh
7BSXBasar (2)  16:31+1016:32+121m21190.049358mSCRDist Adilabad, Andhra Pradesh
8DABDharmabad (2)  16:44+1216:45+131m--1199.952354mSCRDegaon, Maharashtra
8.1SQESamrla  16:52-16:52-  1206.3 52360mSCRDharmabad, Maharashtra
8.2KEKKarkheli  17:01-17:01-  1213.4 52358mSCRBiloli, Maharashtra
8.3BLSABolsaX  17:09-17:09-  1220.9 52361mSCRDharmabad, Maharashtra
9UMRIUmri  17:19+1517:20+171m--1229.358381mSCRNanded, Maharashtra
9.1SLGHShelgaon HaltX  17:28-17:28-  1237.1 58378mSCRMudkhed, Maharashtra
9.2SVNSivungaon  17:33-17:33-  1241.6 58395mSCRNanded, Maharashtra
10MUEMudkhed Junction (4)X  17:40+3417:42+362m--1248.828378mSCRMudkhed, Maharashtra
10.1MGCMugat  18:02-18:02-  1257.9 28360mSCRNanded, Maharashtra
10.2PARDPathradX  18:09-18:09-  1261.2 28363mSCRHuzur Sahib Nanded, Maharashtra
10.3MTDIMaltekdi  18:24-18:24-  1268.4 28362mSCRNanded, Maharashtra
11NEDHazur Sahib Nanded (4)X  18:30+2318:35+305m11271.133366mSCRNanded ph.no 09730471954, Maharashtra
11.1WNGWanegaon  18:47-18:47-  1277.6 33371mSCRChudawa, Maharashtra
11.2LBGLimbgaonX  18:55-18:55-  1282.2 33390mSCRHuzur Sahib Nanded, Maharashtra
11.3CRUChudawa (1)  19:12-19:12-  1291.9 33392mSCRHingoli, Maharashtra
12PAUPurna Junction (4)  19:30+1519:35+215m--1301.768384mSCRPurna, Maharashtra
12.1MQLMirkhal  19:46-19:46-  1313.8 68405mSCRPurna, Maharashtra
12.2PIZPingliO  19:50-19:50-  1319.2 68399mSCRParbhani, Maharashtra
13PBNParbhani Junction (3)X  20:00+2820:05+295m11330.268414mSCRParbhani 431401, Maharashtra
13.1PGPergaonX  20:16-20:16-  1342.3 68441mSCRParbhani, Maharashtra
13.2DAVDevalgaon Avchar  20:21-20:21-  1348.3 68425mSCRParbhani, Maharashtra
14MVOManwath Road (2)  20:29+3220:30+351m--1357.647421mSCRParbhani, Maharashtra
14.1DGPPDhengli Pimpalgaon  20:37-20:37-  1363.0 47407mSCRSatuna, Maharashtra
15SELUSelu (2)  20:49+3620:50+371m--1372.657436mSCRParbhani, Maharashtra
15.1SCOSatunaX  21:01-21:01-  1382.8 57440mSCRSatona, Maharashtra
15.2UPRUsmanpurX  21:09-21:09-  1390.7 57444mSCRUsmanpur, Maharashtra
16PTUPartur (2)  21:19+3421:20+351m--1400.259465mSCRJalna, Maharashtra
16.1PDGParadgaon  21:27-21:27-  1407.4 59454mSCRUsmanpur, Maharashtra
16.2RNERanjani  21:34-21:34-  1413.6 59469mSCRJalna, Maharashtra
16.3KODIKodiX  21:45-21:45-  1424.9 59473mSCRRanjani, Maharashtra
16.4SVDSarwariO  21:55-21:55-  1434.8 59493mSCRRanjani, Maharashtra
17JJalna (3)X  22:05+3122:07+362m--1444.651502mSCRJalna, Maharashtra
17.1BDUBadnapur  22:29-22:29-  1463.5 51523mSCRJalna, Maharashtra
17.2KMVKarmad  22:47-22:47-  1479.0 51567mSCRAurangabad, Maharashtra
17.3CTHChikalthanX  22:52-22:52-  1482.9 51582mSCRAurangabad, Maharashtra
17.4MKDDMukundwadi Halt (1)  23:08-23:08-  1497.2 51580mSCRAurangabad, Maharashtra
18AWBAurangabad (5)X  23:20+2223:25+265m21507.284561mSCRAurangabad 431001, Maharashtra
18.1DLBDaulatabadX  23:34-23:34-  1519.7 84575mSCRDaulatabad, Maharashtra
18.2POZPotul (1)  23:41-23:41-  1529.0 84554mSCRLasur, Maharashtra
19LSRLasur (2)  23:49+3423:50+351m--1540.856536mSCRAurangabad, Maharashtra
19.1KAJGKaranjgaonX  00:01-00:01-  2550.9 56523mSCRLasur, Maharashtra
19.2PSDParsoda  00:06-00:06-  2555.6 56530mSCRRotegaon, Maharashtra
20RGORotegaon  00:19+3200:20+321m--2567.935547mSCRAurangabad, Maharashtra
20.1TRTarur  00:57-00:57-  2589.7 35586mSCRTaru, Maharashtra
20.2NSLNagarsol (2)  01:08-01:08-  2595.9 35589mSCRDist. Nashik, Maharashtra
20.3ANKAnkai (3)X  01:25-01:25-  2605.8 35620mSCRDist. Nashik, Maharashtra
20.4AAKAnkaikila  01:33-01:33-  2610.5 35645mCRNasik Dist, Maharashtra
20.5MMRBManmad B Cabin  01:43-01:43-  2616.4 35596mCRManmad, Maharashtra
21MMRManmad Junction (6)XO  01:50+402:00+2410m52620.782580mCRManmad 423104, Maharashtra
21.1SUMSummit (2)X  02:09-02:09-  2633.1 82632mCRSummit, Maharashtra
22LSLasalgaon (3)X  02:18+2902:20+292m--2645.283592mCRLasalgaon, Maharashtra
22.1UGNUgaon (2)  02:27-02:27-  2655.1 83568mCRUgaon, Maharashtra
22.2NRNiphad (3)  02:32-02:32-  2662.1 83550mCRNashik, Maharashtra
22.3KBSNKasbe Sukene (3)  02:37-02:37-  2668.1 83548mCRKasbe Sukene, Maharashtra
22.4KWKhervadi (2)X  02:41-02:41-  2674.9 83553mCRKherwadi, Maharashtra
22.5ODHAOdha (2)  02:47-02:47-  2681.9 83571mCRDist. Nashik, Maharashtra
23NKNasik Road (3)X  02:55+3103:00+285m32693.543563mCRNashik 422101, Maharashtra
24DVLDevlali (3)XO  03:08+2703:10+272m22699.245561mCRDist. Nashik 422401, Maharashtra
24.1LTLahavit (1)XO  03:20-03:20-  2706.8 45587mCRWadhiware, Maharashtra
24.2AVAsvali (2)X  03:37-03:37-  2719.2 45578mCRAsvali, Maharashtra
24.3PIPadli (1)X  03:48-03:48-  2727.7 45591mCRNational Highway 3, Maharashtra
24.4GOGhoti (2)  03:59-03:59-  2736.0 45581mCRGhoti, Maharashtra
25IGPIgatpuri (4)  04:10+1504:15+185m--2744.252589mCRIgatpuri 422403, Maharashtra
25.1TGR2Block & Catch Siding Cabin 2  04:23-04:23-  2751.2 52473mCRNational Highway 3, Maharashtra
25.2TGR3Block & Catch Siding Cabin 3  04:27-04:27-  2754.8 52365mCRNH-3, Maharashtra
25.3KSRAKasara (4)  04:32-04:32-  2758.5 52290mCRDist. Thane 421602, Maharashtra
25.4OMBOombermali  04:40-04:40-  2765.3 52248mCROombermali, Maharashtra
25.5KEKhardi (2)  04:47-04:47-  2771.9 52232mCRKhardi, Maharashtra
25.6THSThansit  04:54-04:54-  2778.1 52184mCRNational Highway 3, Maharashtra
25.7ATGAtgaon (2)  05:01-05:01-  2784.0 52147mCRAtgaon, Maharashtra
25.8ASOAsangaon (3)  05:13-05:13-  2793.8 5277mCRDist. Thane, Maharashtra
25.9VSDVasind (2)  05:20-05:20-  2799.7 5232mCRVasind, Maharashtra
25.10KDVKhadavli (3)  05:28-05:28-  2807.3 5223mCRKhadavli, Maharashtra
25.11TLATitwala (3)  05:37-05:37-  2814.9 5217mCRTitwala, Maharashtra
25.12ABYAmbivli (2)  05:43-05:43-  2819.7 5222mCRAmbivli, Maharashtra
25.13SHADShahad (2)  05:46-05:46-  2822.7 5212mCRUlhasnagar, Maharashtra
26KYNKalyan Junction (8)  05:50+3305:55+305m62826.06710mCRKalyan 421301, Maharashtra
26.1THKThakurli (2)  05:58-05:58-  2829.6 6714mCRThakurli, Maharashtra
26.2DIDombivli (5)X  05:59-05:59-  2831.0 6711mCRDombivli, Maharashtra
26.3KOPRKopar (4)  06:01-06:01-  2832.2 670mCRKopar, Maharashtra
26.4DIVADiva Junction (6)  06:04-06:04-  2836.6 673mCRJn Pt TNA/PNVL/KYN/BSR Diva, Maharashtra
26.5MBQMumbra (2)X  06:07-06:07-  2839.2 678mCRMumbra, Maharashtra
26.6KLVAKalva (2)  06:11-06:11-  2843.6 675mCRKalva, Maharashtra
27TNAThane (10)X  06:13+3806:15+402m62846.25410mCRThane, Maharashtra
27.1MLNDMulund (4)  06:18-06:18-  2848.7 5412mCRMumbai, Maharashtra
27.2NHUNahur (2)  06:20-06:20-  2850.9 545mCRMumbai, Maharashtra
27.3BNDBhandup (4)  06:22-06:22-  2852.6 547mCRMumbai 400078, Maharashtra
27.4KJMGKanjur Marg (2)  06:24-06:24-  2854.5 545mCRMumbai, Maharashtra
27.5VKVikhroli (4)X  06:26-06:26-  2856.3 5410mCRMumbai, Maharashtra
27.6GCGhatkopar (4)  06:30-06:30-  2860.0 5411mCRMumbai 400086, Maharashtra
27.7VVHVidyavihar (2)X  06:32-06:32-  2861.3 548mCRMumbai, Maharashtra
27.8LTTMumbai Lokmanya Tilak Terminus (5)  06:33-06:33-  2862.6 547mCRMumbai, Maharashtra
27.9CLAKurla Junction (8)  06:35-06:35-  2863.8 548mCRMumbai, Maharashtra
27.10SINMumbai Sion (4)O  06:37-06:37-  2866.3 547mCRMumbai, Maharashtra
27.11MTNMumbai Matunga (4)  06:40-06:40-  2869.0 547mCRMumbai, Maharashtra
28DRMumbai Dadar Central (8)  06:42+3706:45+393m62870.4217mCRMumbai 400014, Maharashtra
28.1PRMumbai Parel (4)X  06:48-06:48-  2871.4 216mCRMumbai, Maharashtra
28.2CRDMumbai Currey Road (2)  06:53-06:53-  2873.2 215mCRMumbai, Maharashtra
28.3CHGMumbai Chinchpokli (2)  06:55-06:55-  2874.0 216mCRMumbai, Maharashtra
28.4BYByculla (4)X  06:59-06:59-  2875.2 219mCRMumbai 400027, Maharashtra
28.5SNRDMumbai Sandhurst Road (4)  07:04-07:04-  2877.0 219mCRMumbai, Maharashtra
28.6MSDMumbai Masjid (4)  07:07-07:07-  2878.2 2110mCRMumbai, Maharashtra
29CSTM•Mumbai CST (18)•  07:10+28-102879.0-10mCRMumbai 400001, Maharashtra
Scroll to Top
Scroll to Bottom